This is the latest recevied weather packets stored in our database for station/object WC4PEM-9. If no packets are shown the sender has not sent any weather packets the latest 1 day(s).
| Time | Temp. | Humidity | Pressure | Rain* | Wind** | Luminosity | Snow |
|---|---|---|---|---|---|---|---|
| 1778027306 | 23.89° C | 67% | 1014.7 hPa | 0 mm | 0.89 m/s, 138° | - | - |
| 1778027006 | 24.44° C | 66% | 1014.4 hPa | 0 mm | 0.89 m/s, 117° | - | - |
| 1778026706 | 24.44° C | 65% | 1014.4 hPa | 0 mm | 1.34 m/s, 165° | - | - |
| 1778026406 | 25° C | 65% | 1014.2 hPa | 0 mm | 1.34 m/s, 93° | - | - |
| 1778026106 | 25° C | 64% | 1014.3 hPa | 0 mm | 1.79 m/s, 34° | - | - |
| 1778025806 | 25° C | 64% | 1014 hPa | 0 mm | 1.34 m/s, 128° | - | - |
| 1778025506 | 25.56° C | 64% | 1014.2 hPa | 0 mm | 1.34 m/s, 124° | - | - |
| 1778025498 | 25.56° C | 63% | 1014.1 hPa | 0 mm | 1.79 m/s, 149° | - | - |
| 1778025206 | 25.56° C | 63% | 1014.1 hPa | 0 mm | 1.79 m/s, 149° | - | - |
| 1778025092 | 26.11° C | 63% | 1014.1 hPa | 0 mm | 1.34 m/s, 165° | - | - |
| 1778024906 | 26.11° C | 63% | 1014.1 hPa | 0 mm | 1.34 m/s, 165° | - | - |
| 1778024607 | 26.11° C | 62% | 1014 hPa | 0 mm | 1.79 m/s, 102° | - | - |
| 1778024316 | 26.11° C | 62% | 1013.9 hPa | 0 mm | 2.24 m/s, 66° | - | - |
| 1778024277 | 26.67° C | 60% | 1013.9 hPa | 0 mm | 2.24 m/s, 110° | - | - |
| 1778024007 | 26.67° C | 60% | 1013.9 hPa | 0 mm | 2.24 m/s, 110° | - | - |
| 1778023861 | 26.67° C | 60% | 1013.7 hPa | 0 mm | 2.24 m/s, 185° | - | - |
| 1778023707 | 26.67° C | 60% | 1013.7 hPa | 0 mm | 2.24 m/s, 185° | - | - |
| 1778023590 | 27.22° C | 60% | 1013.8 hPa | 0 mm | 1.79 m/s, 157° | - | - |
| 1778023407 | 27.22° C | 60% | 1013.8 hPa | 0 mm | 1.79 m/s, 157° | - | - |
| 1778023107 | 27.22° C | 60% | 1013.5 hPa | 0 mm | 1.79 m/s, 120° | - | - |
| 1778022807 | 27.22° C | 59% | 1013.6 hPa | 0 mm | 1.79 m/s, 137° | - | - |
| 1778022507 | 27.78° C | 59% | 1013.9 hPa | 0 mm | 2.24 m/s, 113° | - | - |
| 1778022439 | 27.78° C | 57% | 1013.9 hPa | 0 mm | 1.79 m/s, 41° | - | - |
| 1778022207 | 27.78° C | 57% | 1013.9 hPa | 0 mm | 1.79 m/s, 41° | - | - |
| 1778021907 | 28.33° C | 57% | 1013.9 hPa | 0 mm | 1.34 m/s, 66° | - | - |
* Rain latest hour (hover to see other rain measurements)
** Current wind speed in m/s (hover to see current wind gust speed)